Regional Weather Roundup
Issued by NWS

Home | Current Version | Previous Version | Graphics & Text | Print | Product List | Glossary On
Versions: 1 2 3 4 5 6 7 8 9 10 11 12 13 14 15 16 17 18 19 20 21 22 23 24 25 26 27 28 29 30 31 32 33 34 35 36 37 38 39 40 41 42 43 44 45 46 47 48 49 50
000
ASUS43 KLOT 011708
RWRIL

ILLINOIS REGIONAL WEATHER ROUNDUP
NATIONAL WEATHER SERVICE CHICAGO/ROMEOVILLE IL
1200 PM CDT SAT AUG 01 2015

NOTE: "FAIR" INDICATES FEW OR NO CLOUDS BELOW 12,000 FEET WITH NO
SIGNIFICANT WEATHER AND/OR OBSTRUCTIONS TO VISIBILITY.

* THESE STATIONS ARE NOT UNDER NWS QUALITY CONTROL. THEY ALSO MAY NOT
  REPORT WEATHER SUCH AS PRECIPITATION OR FOG.

ILZ001-002-007-009-015-016-024-011800-
NORTHWEST ILLINOIS

CITY           SKY/WX    TMP DP  RH WIND       PRES   REMARKS
MOLINE         MOSUNNY   83  59  44 SW10      30.01S HX  83
STERLING*      SUNNY     84  64  51 W6        29.97F HX  86
SAVANNA*       SUNNY     83  60  45 SW8       30.00F HX  84
$$

ILZ003-004-008-010-011-017-018-011800-
NORTH CENTRAL ILLINOIS

CITY           SKY/WX    TMP DP  RH WIND       PRES   REMARKS
ROCKFORD       MOSUNNY   83  56  39 W10       30.01F HX  82
FREEPORT*      SUNNY     80  60  51 W7        30.01F HX  81
ROCHELLE*      SUNNY     81  62  52 W10G16    30.01F HX  82
DE KALB*       SUNNY     81  60  49 W8        30.02F HX  81
PERU*          SUNNY     81  57  44 W9        30.02F HX  81
$$

ILZ005-006-012>014-019>023-011800-
NORTHEAST ILLINOIS

CITY           SKY/WX    TMP DP  RH WIND       PRES   REMARKS
CHICAGO-OHARE  MOSUNNY   82  55  39 NW12      29.98F HX  81
CHICAGO-MIDWAY MOSUNNY   85  54  34 W9G20     29.99S HX  83
AURORA         MOSUNNY   82  58  43 W7        30.01F HX  82
LANSING*       CLOUDY    82  52  35 W8        30.00S HX  81
JOLIET*        MOSUNNY   82  60  46 W8        30.01S HX  83
WAUKEGAN       MOSUNNY   80  57  45 NW9       29.97F HX  80
DUPAGE AIRPORT MOSUNNY   81  56  42 W10       30.00S HX  81
KANKAKEE*      MOSUNNY   82  58  44 NW9       30.02F HX  82
WHEELING       MOSUNNY   83  55  38 NW12      29.99F HX  82
MORRIS*        SUNNY     81  60  49 W7        30.00F HX  82
ROMEOVILLE*    SUNNY     81  56  41 NW9       30.01F HX  81
NORTHERLY ISL    N/A     83  49  30 W2          N/A  HX  81
$$

LMZ740>746-011800-
SOUTHERN LAKE MICHIGAN

STATION/POSITION SKY/WX   TEMP    WIND        PRES    VSBY  WAVE
                          AIR SEA DIR/SP/G                  HT/PER
                          (F)     (DEG/KT/KT) (MB)    (MI)  (FT/S)
HARRISON CRIB              78     300/ 16/ 20   N/A
BURNHAM HARBOR             82     270/  8/ 14   N/A
CALUMET HARBOR             83     270/  5/ 13   N/A
BURNS HARBOR               76     260/  5/  6 1016.3R
MICHIGAN CITY              73     220/  9/ 10   N/A
MICHIGAN CITY 6N           74 74  240/  6/  8   N/A           2/ 4
ST. JOSEPH                 73 74  290/ 10/ 10   N/A           2/ 4
$$

ILZ025>027-034>036-040-047-049-050-058-095>099-011800-
WEST-CENTRAL ILLINOIS

CITY           SKY/WX    TMP DP  RH WIND       PRES   REMARKS
QUINCY         PTSUNNY   82  59  45 S8        30.05F HX  82
GALESBURG*     PTSUNNY   81  63  54 S9        30.04S HX  82
MACOMB*        MOSUNNY   82  61  48 SW7       30.06F HX  83
JACKSONVILLE*  MOSUNNY   85  59  41 SW3       30.05F HX  84
PITTSFIELD*    MOSUNNY   82  62  49 S5        30.07F HX  83
$$

ILZ028>032-037-038-041>044-048-051>054-059>061-011800-
CENTRAL ILLINOIS

CITY           SKY/WX    TMP DP  RH WIND       PRES   REMARKS
PONTIAC        SUNNY     81  64  56 SW8       30.04F HX  82
BLOOMINGTON    SUNNY     82  57  42 VRB5      30.06F HX  82
DECATUR        SUNNY     85  54  34 CALM      30.05F HX  83
PEORIA         MOSUNNY   84  59  42 SW9       30.04S HX  84
LACON*         SUNNY     81  60  49 SW7       30.02F HX  81
LINCOLN*       SUNNY     85  57  37 W3        30.04F HX  84
SPRINGFIELD    SUNNY     84  58  40 W5        30.05F HX  83
TAYLORVILLE    SUNNY     81  59  47 CALM      30.06F HX  81
$$

ILZ033-039-045-046-055>057-062-063-011800-
EAST-CENTRAL ILLINOIS

CITY           SKY/WX    TMP DP  RH WIND       PRES   REMARKS
CHAMPAIGN      SUNNY     81  55  40 CALM      30.05F HX  81
DANVILLE*      SUNNY     80  60  49 W3        30.02F HX  81
RANTOUL*       SUNNY     83  57  40 W7        30.05S HX  83
MATTOON        SUNNY     83  52  34 N7        30.05F HX  82
PARIS*         SUNNY     82  54  37 NW8       30.07R HX  81
$$

ILZ079-100>102-011800-
SOUTHWEST ILLINOIS

CITY           SKY/WX    TMP DP  RH WIND       PRES   REMARKS
ALTON          MOSUNNY   82  61  47 SE6       30.06F HX  83
BELLEVILLE     MOSUNNY   83  63  50 NE5       30.05F HX  84
CAHOKIA*       MOSUNNY   86  58  38 VRB5      30.06F HX  85
SPARTA*        MOSUNNY   83  61  47 E6        30.07F HX  83
$$

ILZ064>066-069>071-074>076-080>082-084>086-088>090-092>094-011800-
SOUTH-CENTRAL ILLINOIS

CITY           SKY/WX    TMP DP  RH WIND       PRES   REMARKS
CARBONDALE     SUNNY     84  62  47 E3        30.05F HX  85
CAIRO*         SUNNY     85  72  64 NE5       30.04F HX  90
EFFINGHAM*     SUNNY     84  49  29 CALM      30.07F HX  82
MARION         MOSUNNY   86  63  45 E7        30.06F HX  87
MT. VERNON     SUNNY     84  61  45 N7        30.06F HX  84
CENTRALIA*     MOSUNNY   84  58  41 E6        30.06F HX  83
SALEM*         SUNNY     84  58  40 N3        30.07F HX  83
METROPOLIS*    SUNNY     85  72  64 CALM      30.04F HX  90
$$

ILZ067-068-072-073-078-083-087-091-011800-
SOUTHEAST ILLINOIS

CITY           SKY/WX    TMP DP  RH WIND       PRES   REMARKS
LAWRENCEVILLE  SUNNY     85  56  37 N8        30.05F HX  84
FLORA*         SUNNY     83  53  34 N5        30.06F HX  82
FAIRFIELD*     SUNNY     82  61  48 NW3       30.05F HX  83
HARRISBURG*    SUNNY     83  60  46 NE5       30.06F HX  83
ROBINSON*      SUNNY     81  57  43 N5        30.06F HX  81
CARMI*         SUNNY     82  55  38 CALM      30.05S HX  82
$$

ABBREVIATIONS USED IN REMARKS
   TC - TEMPERATURE IN CELSIUS
  WCI - WIND CHILL INDEX
   HX - HEAT INDEX
  VSB - VISIBILITY
$$



USA.gov is the U.S. government's official web portal to all federal, state and local government web resources and services.